Location: Newark
(52.2583°N, 7.1190°W)
Time: 07:41:04
(UTC+00:00)

Tiros 1 despin weight - Visible Passes

Search period start: 17 November 2019 00:00
Search period end: 27 November 2019 00:00
Orbit: 594 x 642 km, 48.2° (Epoch: 16 November)

Date Brightness Start Highest point End Pass type
(mag) Time Alt. Az. Time Alt. Az. Time Alt. Az.
17 Nov ? 17:04:02 10° WSW 17:08:21 51° S 17:12:45 10° ESE visible
17 Nov ? 18:45:23 10° W 18:49:30 36° SSW 18:51:26 25° SSE visible
17 Nov ? 20:27:46 10° WSW 20:28:30 12° WSW 20:28:30 12° WSW visible
18 Nov ? 17:20:30 10° W 17:24:48 49° S 17:29:10 10° ESE visible
18 Nov ? 19:02:03 10° W 19:05:50 27° SSW 19:07:31 21° S visible
19 Nov ? 17:37:01 10° W 17:41:13 41° SSW 17:45:29 10° SE visible
19 Nov ? 19:18:57 10° WSW 19:22:04 19° SSW 19:23:46 15° S visible
20 Nov ? 17:53:36 10° W 17:57:35 32° SSW 18:01:36 10° SE visible
20 Nov ? 19:36:42 10° WSW 19:38:12 11° SW 19:39:41 10° SSW visible
21 Nov ? 18:10:21 10° W 18:13:52 23° SSW 18:17:26 10° SSE visible
22 Nov ? 18:27:28 10° WSW 18:30:04 15° SW 18:32:41 10° S visible
23 Nov ? 17:01:51 10° W 17:05:39 28° SSW 17:09:30 10° SSE visible
24 Nov ? 17:18:43 10° WSW 17:21:55 19° SSW 17:25:07 10° SSE visible
25 Nov ? 17:36:15 10° WSW 17:38:04 12° SW 17:39:52 10° SSW visible
